NORTHEAST SUFFOLK  -  Winter Weather Advisory Winter Weather Advisory     Winter Weather Advisory Winter Weather Advisory        NORTHERN NASSAU  -  Winter Weather Advisory Winter Weather Advisory        NORTHWEST SUFFOLK  -  Winter Weather Advisory Winter Weather Advisory     Winter Weather Advisory Winter Weather Advisory        SOUTHEAST SUFFOLK  -  Winter Weather Advisory Winter Weather Advisory     Winter Weather Advisory Winter Weather Advisory        SOUTHERN NASSAU  -  Winter Weather Advisory Winter Weather Advisory        SOUTHWEST SUFFOLK  -  Winter Weather Advisory Winter Weather Advisory     Winter Weather Advisory Winter Weather Advisory      

Active alerts

Northern Nassau
  Details for Northern Nassau Winter Weather Advisory
Southern Nassau
  Details for Southern Nassau Winter Weather Advisory
Northwest Suffolk
  Details for Northwest Suffolk Winter Weather Advisory  +1 additional alert
Southwest Suffolk
  Details for Southwest Suffolk Winter Weather Advisory  +1 additional alert
Northeast Suffolk
  Details for Northeast Suffolk Winter Weather Advisory  +1 additional alert
Southeast Suffolk
  Details for Southeast Suffolk Winter Weather Advisory  +1 additional alert


WXM80 ListenWXM80 Stop

You find our weather info also at:

UK Metoffice

WeatherCloud

Weather Underground

Northeastern Weather Network

AWEKAS

Citizen Weather Observer Program (CWOP)

HAMweather, WeatherForYou, PWS Weather


Weather Underground History page Text

Daily Summary for December 07, 2017 Units:  English    Metric   Both
« Previous Day
Next Day »
Daily Weekly Monthly Yearly Custom
  High: Low: Average:
Temperature: 46.1 °F 37.8 °F 41 °F
Dew Point: 30.0 °F 22.3 °F 26.1 °F
Humidity: 68 % 40 % 56 %
Wind Speed: 12.3 mph 0.2 mph 4.2 mph
Wind Gust: 20.0 mph - -
Wind:- - WSW
Pressure: 30.03 in 29.80 in -
Precipitation: 0.00 in    
Historical Graphs
 
 
Tabular Data for December 07, 2017
Time Temperature Dew Point Pressure Wind Wind Speed Wind Gust Humidity Rainfall Rate (Hourly)
00:03 39.3 °F 25.3 °F 29.98 in WSW 2.3 mph 6.9 mph 57 % 0.00 in
00:08 39.3 °F 25.3 °F 29.99 in WSW 2.3 mph 3.5 mph 57 % 0.00 in
00:13 39.2 °F 25.2 °F 29.98 in SW 3.4 mph 5.0 mph 57 % 0.00 in
00:18 39.2 °F 24.8 °F 29.99 in SW 4.3 mph 10.4 mph 56 % 0.00 in
00:23 39.2 °F 25.2 °F 29.98 in SW 1.3 mph 5.0 mph 57 % 0.00 in
00:28 39.2 °F 25.2 °F 29.99 in SW 2.9 mph 6.9 mph 57 % 0.00 in
00:33 39.2 °F 25.2 °F 29.98 in SSW 1.0 mph 4.6 mph 57 % 0.00 in
00:38 39.2 °F 25.2 °F 29.99 in SW 3.5 mph 4.6 mph 57 % 0.00 in
00:44 39.2 °F 25.6 °F 29.99 in SW 4.8 mph 6.9 mph 58 % 0.00 in
00:49 39.1 °F 25.6 °F 29.99 in SSW 1.5 mph 5.8 mph 58 % 0.00 in
00:54 39.1 °F 25.6 °F 29.99 in South 3.8 mph 11.5 mph 58 % 0.00 in
00:59 39.1 °F 25.6 °F 29.98 in SW 2.5 mph 5.0 mph 58 % 0.00 in
01:04 39.1 °F 25.6 °F 29.98 in SSW 1.3 mph 3.5 mph 58 % 0.00 in
01:09 39.1 °F 25.6 °F 29.98 in South 2.7 mph 5.0 mph 58 % 0.00 in
01:14 39.2 °F 25.6 °F 29.98 in South 6.4 mph 9.2 mph 58 % 0.00 in
01:19 39.3 °F 25.3 °F 29.98 in SSW 5.2 mph 8.1 mph 57 % 0.00 in
01:24 39.3 °F 25.3 °F 29.98 in SSW 4.3 mph 7.0 mph 57 % 0.00 in
01:29 39.4 °F 25.4 °F 29.98 in SSW 2.1 mph 6.9 mph 57 % 0.00 in
01:34 39.5 °F 25.9 °F 29.98 in SW 1.3 mph 3.5 mph 58 % 0.00 in
01:39 39.5 °F 25.9 °F 29.98 in South 3.6 mph 9.2 mph 58 % 0.00 in
01:44 39.5 °F 25.5 °F 29.98 in SW 2.5 mph 3.5 mph 57 % 0.00 in
01:49 39.5 °F 25.9 °F 29.98 in SW 2.3 mph 5.0 mph 58 % 0.00 in
01:54 39.5 °F 25.9 °F 29.98 in SSW 3.5 mph 6.0 mph 58 % 0.00 in
01:59 39.5 °F 25.9 °F 29.98 in SW 3.7 mph 5.8 mph 58 % 0.00 in
02:05 39.5 °F 25.9 °F 29.98 in WSW 1.9 mph 3.5 mph 58 % 0.00 in
02:10 39.5 °F 25.9 °F 29.98 in SSW 1.8 mph 3.5 mph 58 % 0.00 in
02:15 39.5 °F 25.9 °F 29.98 in SW 0.8 mph 3.5 mph 58 % 0.00 in
02:20 39.5 °F 25.9 °F 29.98 in SW 3.5 mph 5.8 mph 58 % 0.00 in
02:25 39.4 °F 25.8 °F 29.98 in SW 2.0 mph 6.9 mph 58 % 0.00 in
02:30 39.4 °F 26.2 °F 29.98 in SW 2.5 mph 7.0 mph 59 % 0.00 in
02:35 39.4 °F 25.8 °F 29.98 in WSW 4.2 mph 9.2 mph 58 % 0.00 in
02:40 39.4 °F 25.8 °F 29.98 in SW 2.5 mph 4.6 mph 58 % 0.00 in
02:45 39.5 °F 25.9 °F 29.97 in SSW 2.8 mph 4.6 mph 58 % 0.00 in
02:50 39.4 °F 26.2 °F 29.97 in WSW 1.1 mph 7.0 mph 59 % 0.00 in
02:55 39.4 °F 26.2 °F 29.97 in WSW 4.1 mph 5.8 mph 59 % 0.00 in
03:00 39.4 °F 26.2 °F 29.97 in SW 1.4 mph 6.9 mph 59 % 0.00 in
03:05 39.4 °F 26.2 °F 29.98 in SSW 4.2 mph 6.9 mph 59 % 0.00 in
03:10 39.4 °F 26.2 °F 29.97 in SW 3.9 mph 5.8 mph 59 % 0.00 in
03:15 39.5 °F 26.8 °F 29.97 in SW 4.6 mph 10.0 mph 60 % 0.00 in
03:20 39.6 °F 26.8 °F 29.97 in SW 4.8 mph 11.5 mph 60 % 0.00 in
03:26 39.6 °F 26.8 °F 29.97 in SSW 3.3 mph 9.0 mph 60 % 0.00 in
03:31 39.7 °F 26.9 °F 29.97 in SW 1.9 mph 5.8 mph 60 % 0.00 in
03:36 39.7 °F 26.9 °F 29.97 in WSW 2.0 mph 9.0 mph 60 % 0.00 in
03:38 39.7 °F 26.9 °F 29.97 in WSW 3.3 mph 9.2 mph 60 % 0.00 in
03:43 39.7 °F 26.9 °F 29.97 in SW 4.1 mph 9.2 mph 60 % 0.00 in
03:48 39.7 °F 26.9 °F 29.97 in SW 0.4 mph 3.5 mph 60 % 0.00 in
03:53 39.7 °F 26.9 °F 29.97 in WSW 3.8 mph 8.1 mph 60 % 0.00 in
03:58 39.7 °F 26.9 °F 29.97 in WSW 6.5 mph 10.4 mph 60 % 0.00 in
04:03 39.7 °F 26.9 °F 29.97 in WSW 5.0 mph 10.4 mph 60 % 0.00 in
04:08 39.7 °F 26.9 °F 29.97 in SW 2.3 mph 8.0 mph 60 % 0.00 in
04:13 39.7 °F 26.9 °F 29.96 in West 5.6 mph 6.9 mph 60 % 0.00 in
04:18 39.7 °F 26.9 °F 29.96 in West 6.3 mph 10.4 mph 60 % 0.00 in
04:23 39.7 °F 26.9 °F 29.96 in South 2.5 mph 5.8 mph 60 % 0.00 in
04:28 39.6 °F 27.2 °F 29.96 in SSW 3.1 mph 6.9 mph 61 % 0.00 in
04:33 39.6 °F 27.2 °F 29.96 in WSW 2.7 mph 4.6 mph 61 % 0.00 in
04:38 39.6 °F 27.2 °F 29.96 in WSW 2.9 mph 8.1 mph 61 % 0.00 in
04:39 39.6 °F 27.2 °F 29.96 in WSW 1.8 mph 3.5 mph 61 % 0.00 in
04:44 39.5 °F 27.5 °F 29.96 in SW 4.5 mph 8.1 mph 62 % 0.00 in
04:49 39.5 °F 27.5 °F 29.96 in WSW 1.2 mph 4.6 mph 62 % 0.00 in
04:54 39.4 °F 27.8 °F 29.96 in WSW 3.2 mph 6.9 mph 63 % 0.00 in
04:59 39.4 °F 27.8 °F 29.96 in WSW 4.5 mph 8.0 mph 63 % 0.00 in
05:04 39.3 °F 28.1 °F 29.96 in WSW 4.8 mph 8.1 mph 64 % 0.00 in
05:09 39.3 °F 28.1 °F 29.97 in West 2.8 mph 8.1 mph 64 % 0.00 in
05:14 39.3 °F 28.1 °F 29.97 in WSW 4.2 mph 7.0 mph 64 % 0.00 in
05:19 39.3 °F 28.1 °F 29.97 in SW 3.9 mph 9.2 mph 64 % 0.00 in
05:24 39.3 °F 28.1 °F 29.97 in SW 4.8 mph 11.5 mph 64 % 0.00 in
05:29 39.3 °F 28.1 °F 29.97 in SSW 1.0 mph 10.4 mph 64 % 0.00 in
05:34 39.3 °F 28.1 °F 29.97 in SW 3.0 mph 6.9 mph 64 % 0.00 in
05:39 39.3 °F 28.1 °F 29.97 in SSW 3.5 mph 6.9 mph 64 % 0.00 in
05:44 39.2 °F 27.7 °F 29.97 in SSW 1.1 mph 3.5 mph 63 % 0.00 in
05:50 39.2 °F 27.7 °F 29.98 in SW 1.4 mph 4.6 mph 63 % 0.00 in
05:55 39.0 °F 27.5 °F 29.98 in SW 4.6 mph 8.1 mph 63 % 0.00 in
06:00 39.0 °F 27.5 °F 29.98 in SW 1.9 mph 6.9 mph 63 % 0.00 in
06:05 38.9 °F 27.4 °F 29.98 in SW 4.1 mph 8.1 mph 63 % 0.00 in
06:10 38.8 °F 27.7 °F 29.98 in SW 4.6 mph 6.9 mph 64 % 0.00 in
06:15 38.7 °F 27.6 °F 29.98 in SW 2.6 mph 6.0 mph 64 % 0.00 in
06:20 38.7 °F 27.6 °F 29.99 in West 3.5 mph 5.8 mph 64 % 0.00 in
06:25 38.6 °F 27.5 °F 29.99 in SSW 3.2 mph 6.9 mph 64 % 0.00 in
06:30 38.6 °F 27.5 °F 29.99 in WSW 3.3 mph 6.9 mph 64 % 0.00 in
06:35 38.5 °F 27.7 °F 29.99 in WSW 3.9 mph 8.1 mph 65 % 0.00 in
06:40 38.4 °F 27.7 °F 29.99 in SW 2.0 mph 4.6 mph 65 % 0.00 in
06:45 38.4 °F 27.7 °F 29.99 in SW 2.4 mph 4.6 mph 65 % 0.00 in
06:50 38.3 °F 27.6 °F 29.99 in SW 2.5 mph 4.0 mph 65 % 0.00 in
06:55 38.2 °F 27.5 °F 29.99 in WSW 2.6 mph 4.6 mph 65 % 0.00 in
07:00 38.2 °F 27.8 °F 30.00 in SW 4.4 mph 8.1 mph 66 % 0.00 in
07:05 38.1 °F 27.7 °F 30.00 in WSW 2.2 mph 6.0 mph 66 % 0.00 in
07:10 38.0 °F 27.6 °F 30.00 in WSW 2.2 mph 2.2 mph 66 % 0.00 in
07:15 38.0 °F 28.0 °F 30.00 in SW 3.7 mph 6.0 mph 67 % 0.00 in
07:20 37.9 °F 27.9 °F 30.00 in SW 1.7 mph 3.5 mph 67 % 0.00 in
07:25 37.9 °F 27.9 °F 30.00 in SW 4.1 mph 6.0 mph 67 % 0.00 in
07:31 37.8 °F 27.8 °F 30.00 in SW 2.0 mph 7.0 mph 67 % 0.00 in
07:36 37.8 °F 27.8 °F 30.00 in SW 3.0 mph 8.0 mph 67 % 0.00 in
07:41 37.8 °F 28.2 °F 30.01 in SW 3.0 mph 8.0 mph 68 % 0.00 in
07:46 37.8 °F 28.2 °F 30.01 in SW 1.0 mph 4.0 mph 68 % 0.00 in
07:51 37.8 °F 28.2 °F 30.01 in SW 5.0 mph 7.0 mph 68 % 0.00 in
08:01 37.9 °F 28.3 °F 30.01 in SSW 3.2 mph 5.0 mph 68 % 0.00 in
08:06 38.0 °F 28.4 °F 30.01 in WSW 2.0 mph 9.0 mph 68 % 0.00 in
08:11 38.2 °F 28.5 °F 30.01 in West 1.0 mph 8.0 mph 68 % 0.00 in
08:26 38.8 °F 29.2 °F 30.01 in WSW 3.0 mph 7.0 mph 68 % 0.00 in
08:28 39.0 °F 29.3 °F 30.01 in West 4.0 mph 8.1 mph 68 % 0.00 in
08:33 39.3 °F 29.6 °F 30.01 in WNW 1.9 mph 4.6 mph 68 % 0.00 in
08:38 39.6 °F 29.5 °F 30.01 in WSW 4.0 mph 12.0 mph 67 % 0.00 in
08:43 39.9 °F 29.8 °F 30.01 in WSW 3.3 mph 8.1 mph 67 % 0.00 in
08:48 40.2 °F 29.4 °F 30.02 in WSW 6.5 mph 11.5 mph 65 % 0.00 in
08:53 40.4 °F 29.2 °F 30.01 in WSW 5.8 mph 11.5 mph 64 % 0.00 in
08:58 40.6 °F 29.0 °F 30.01 in WSW 6.6 mph 8.0 mph 63 % 0.00 in
09:03 40.8 °F 29.2 °F 30.01 in WSW 8.1 mph 13.0 mph 63 % 0.00 in
09:08 41.0 °F 28.6 °F 30.01 in West 6.3 mph 11.5 mph 61 % 0.00 in
09:13 41.1 °F 28.7 °F 30.01 in West 7.2 mph 9.0 mph 61 % 0.00 in
09:18 41.3 °F 28.9 °F 30.01 in West 4.1 mph 10.4 mph 61 % 0.00 in
09:23 41.6 °F 29.5 °F 30.01 in WSW 7.5 mph 11.5 mph 62 % 0.00 in
09:28 41.9 °F 29.0 °F 30.01 in WSW 5.5 mph 11.5 mph 60 % 0.00 in
09:33 42.1 °F 28.4 °F 30.01 in West 6.5 mph 10.4 mph 58 % 0.00 in
09:38 42.4 °F 28.2 °F 30.01 in West 9.0 mph 13.8 mph 57 % 0.00 in
09:44 42.6 °F 28.0 °F 30.01 in SW 12.3 mph 17.3 mph 56 % 0.00 in
09:49 42.8 °F 27.7 °F 30.01 in WSW 6.9 mph 11.5 mph 55 % 0.00 in
09:54 42.9 °F 27.8 °F 30.01 in WSW 5.3 mph 13.8 mph 55 % 0.00 in
09:59 43.2 °F 27.7 °F 30.02 in WNW 9.4 mph 12.7 mph 54 % 0.00 in
10:04 43.3 °F 27.8 °F 30.02 in West 6.8 mph 11.5 mph 54 % 0.00 in
10:14 43.6 °F 28.5 °F 30.02 in West 4.1 mph 8.1 mph 55 % 0.00 in
10:19 43.8 °F 28.2 °F 30.02 in WSW 6.8 mph 11.5 mph 54 % 0.00 in
10:24 43.9 °F 27.9 °F 30.01 in WNW 6.2 mph 13.8 mph 53 % 0.00 in
10:29 43.9 °F 27.4 °F 30.01 in South 5.7 mph 12.7 mph 52 % 0.00 in
10:34 43.9 °F 26.0 °F 30.01 in WSW 4.8 mph 9.2 mph 49 % 0.00 in
10:39 43.9 °F 26.4 °F 30.01 in WSW 6.3 mph 10.4 mph 50 % 0.00 in
10:44 43.9 °F 26.4 °F 30.01 in West 8.9 mph 15.0 mph 50 % 0.00 in
10:49 43.9 °F 26.4 °F 30.01 in WSW 5.6 mph 8.1 mph 50 % 0.00 in
10:54 43.8 °F 25.4 °F 30.00 in West 7.9 mph 16.1 mph 48 % 0.00 in
10:59 43.6 °F 25.7 °F 30.00 in WSW 8.4 mph 16.1 mph 49 % 0.00 in
11:04 43.5 °F 26.1 °F 30.00 in WSW 7.2 mph 14.0 mph 50 % 0.00 in
11:09 43.4 °F 26.0 °F 30.00 in WSW 6.0 mph 13.8 mph 50 % 0.00 in
11:19 43.3 °F 26.4 °F 29.99 in West 9.4 mph 12.7 mph 51 % 0.00 in
11:24 43.3 °F 26.4 °F 29.99 in SW 5.8 mph 9.2 mph 51 % 0.00 in
11:29 43.3 °F 26.4 °F 29.99 in WSW 4.5 mph 10.0 mph 51 % 0.00 in
11:34 43.3 °F 25.4 °F 29.98 in WNW 4.6 mph 6.9 mph 49 % 0.00 in
11:39 43.3 °F 25.4 °F 29.98 in WNW 5.4 mph 9.2 mph 49 % 0.00 in
11:44 43.3 °F 25.4 °F 29.98 in WSW 2.9 mph 8.1 mph 49 % 0.00 in
11:49 43.3 °F 25.4 °F 29.98 in WNW 5.7 mph 16.1 mph 49 % 0.00 in
11:54 43.4 °F 25.0 °F 29.98 in NW 3.7 mph 10.4 mph 48 % 0.00 in
11:59 43.5 °F 24.6 °F 29.98 in SW 8.6 mph 10.4 mph 47 % 0.00 in
12:04 43.6 °F 24.7 °F 29.97 in SW 10.4 mph 14.0 mph 47 % 0.00 in
12:10 43.8 °F 24.9 °F 29.97 in WSW 7.6 mph 17.3 mph 47 % 0.00 in
12:15 44.1 °F 25.1 °F 29.97 in WSW 5.2 mph 10.4 mph 47 % 0.00 in
12:20 44.4 °F 23.8 °F 29.97 in West 6.0 mph 12.7 mph 44 % 0.00 in
12:25 44.7 °F 24.1 °F 29.96 in SW 4.8 mph 12.7 mph 44 % 0.00 in
12:30 44.9 °F 23.2 °F 29.96 in SW 5.7 mph 11.5 mph 42 % 0.00 in
12:35 45.0 °F 23.8 °F 29.96 in WSW 8.5 mph 15.0 mph 43 % 0.00 in
12:40 45.2 °F 23.4 °F 29.96 in WSW 7.0 mph 11.5 mph 42 % 0.00 in
12:45 45.2 °F 22.3 °F 29.96 in SW 9.6 mph 17.3 mph 40 % 0.00 in
12:47 45.2 °F 22.3 °F 29.95 in NW 8.6 mph 17.3 mph 40 % 0.00 in
12:50 45.2 °F 22.9 °F 29.95 in SW 10.1 mph 13.0 mph 41 % 0.00 in
13:00 45.1 °F 23.9 °F 29.95 in West 4.6 mph 11.5 mph 43 % 0.00 in
13:05 45.2 °F 24.6 °F 29.95 in WNW 3.5 mph 5.8 mph 44 % 0.00 in
13:20 45.5 °F 24.8 °F 29.95 in WSW 3.0 mph 17.0 mph 44 % 0.00 in
13:26 45.6 °F 26.0 °F 29.94 in West 8.0 mph 17.0 mph 46 % 0.00 in
13:31 45.7 °F 25.6 °F 29.94 in West 5.0 mph 18.0 mph 45 % 0.00 in
13:45 46.0 °F 25.3 °F 29.94 in WSW 7.6 mph 15.0 mph 44 % 0.00 in
13:56 46.1 °F 25.9 °F 29.94 in WSW 9.0 mph 20.0 mph 45 % 0.00 in
14:06 45.9 °F 25.7 °F 29.93 in West 8.4 mph 13.0 mph 45 % 0.00 in
14:16 45.5 °F 24.8 °F 29.93 in WSW 4.4 mph 12.7 mph 44 % 0.00 in
14:21 45.3 °F 24.6 °F 29.93 in WSW 4.6 mph 10.0 mph 44 % 0.00 in
14:26 45.1 °F 25.5 °F 29.93 in WSW 4.3 mph 6.9 mph 46 % 0.00 in
14:31 44.9 °F 23.2 °F 29.93 in WSW 6.4 mph 11.5 mph 42 % 0.00 in
14:41 44.5 °F 23.4 °F 29.93 in SSW 6.7 mph 19.6 mph 43 % 0.00 in
14:46 44.4 °F 23.8 °F 29.93 in SW 5.0 mph 10.4 mph 44 % 0.00 in
14:51 44.3 °F 24.3 °F 29.93 in WSW 8.8 mph 17.3 mph 45 % 0.00 in
15:01 44.2 °F 23.6 °F 29.94 in WSW 6.8 mph 12.7 mph 44 % 0.00 in
15:06 44.1 °F 24.1 °F 29.94 in SW 9.3 mph 12.0 mph 45 % 0.00 in
15:11 44.0 °F 23.5 °F 29.94 in WSW 8.0 mph 11.5 mph 44 % 0.00 in
15:17 44.0 °F 24.0 °F 29.95 in SSW 5.3 mph 12.7 mph 45 % 0.00 in
15:22 43.9 °F 24.4 °F 29.95 in WNW 8.3 mph 19.6 mph 46 % 0.00 in
15:27 43.8 °F 23.3 °F 29.95 in WNW 6.5 mph 11.5 mph 44 % 0.00 in
15:32 43.7 °F 23.2 °F 29.95 in WSW 4.5 mph 10.4 mph 44 % 0.00 in
15:37 43.6 °F 24.2 °F 29.95 in WNW 7.0 mph 10.0 mph 46 % 0.00 in
15:42 43.6 °F 23.6 °F 29.95 in WSW 3.6 mph 7.0 mph 45 % 0.00 in
15:43 43.5 °F 23.5 °F 29.95 in West 7.6 mph 13.0 mph 45 % 0.00 in
15:48 43.4 °F 24.0 °F 29.95 in West 9.9 mph 15.0 mph 46 % 0.00 in
15:53 43.4 °F 23.4 °F 29.95 in WSW 5.6 mph 13.8 mph 45 % 0.00 in
15:58 43.3 °F 23.9 °F 29.95 in West 4.1 mph 6.9 mph 46 % 0.00 in
16:03 43.3 °F 24.4 °F 29.95 in WSW 5.0 mph 11.5 mph 47 % 0.00 in
16:08 43.2 °F 24.3 °F 29.95 in WNW 4.3 mph 11.5 mph 47 % 0.00 in
16:13 43.1 °F 24.2 °F 29.95 in WNW 6.6 mph 8.1 mph 47 % 0.00 in
16:18 43.1 °F 24.2 °F 29.95 in SW 5.7 mph 10.0 mph 47 % 0.00 in
16:24 43.0 °F 24.1 °F 29.95 in WSW 3.7 mph 10.4 mph 47 % 0.00 in
16:29 42.9 °F 24.5 °F 29.95 in WSW 2.8 mph 7.0 mph 48 % 0.00 in
16:34 42.8 °F 24.4 °F 29.95 in WSW 1.8 mph 5.8 mph 48 % 0.00 in
16:39 42.7 °F 24.4 °F 29.96 in WSW 2.4 mph 11.5 mph 48 % 0.00 in
16:44 42.7 °F 23.8 °F 29.96 in West 2.5 mph 9.2 mph 47 % 0.00 in
16:49 42.6 °F 24.3 °F 29.96 in WNW 3.8 mph 6.0 mph 48 % 0.00 in
16:54 42.6 °F 24.3 °F 29.96 in SW 5.3 mph 7.0 mph 48 % 0.00 in
16:59 42.6 °F 24.3 °F 29.96 in SW 2.2 mph 4.6 mph 48 % 0.00 in
17:04 42.5 °F 23.7 °F 29.96 in SW 6.7 mph 10.4 mph 47 % 0.00 in
17:09 42.5 °F 24.2 °F 29.96 in West 5.4 mph 8.1 mph 48 % 0.00 in
17:14 42.5 °F 24.2 °F 29.96 in SW 6.1 mph 11.5 mph 48 % 0.00 in
17:19 42.4 °F 24.1 °F 29.96 in SW 2.8 mph 5.8 mph 48 % 0.00 in
17:24 42.4 °F 23.6 °F 29.96 in SSW 2.9 mph 4.0 mph 47 % 0.00 in
17:29 42.3 °F 23.5 °F 29.95 in SW 3.6 mph 4.6 mph 47 % 0.00 in
17:34 42.2 °F 23.4 °F 29.95 in SSW 2.6 mph 4.0 mph 47 % 0.00 in
17:39 42.0 °F 23.2 °F 29.96 in SSW 0.2 mph 2.3 mph 47 % 0.00 in
17:44 41.9 °F 23.1 °F 29.96 in WSW 2.9 mph 4.6 mph 47 % 0.00 in
17:49 41.7 °F 22.9 °F 29.96 in South 1.4 mph 3.5 mph 47 % 0.00 in
17:54 41.4 °F 22.7 °F 29.96 in SW 2.5 mph 5.8 mph 47 % 0.00 in
17:59 41.2 °F 23.0 °F 29.96 in SW 2.4 mph 3.0 mph 48 % 0.00 in
18:04 41.0 °F 22.8 °F 29.96 in South 3.8 mph 4.6 mph 48 % 0.00 in
18:09 40.9 °F 22.7 °F 29.96 in SSW 2.6 mph 3.5 mph 48 % 0.00 in
18:15 40.7 °F 23.0 °F 29.96 in SW 0.9 mph 4.6 mph 49 % 0.00 in
18:20 40.5 °F 22.8 °F 29.97 in SW 1.0 mph 3.5 mph 49 % 0.00 in
18:25 40.2 °F 22.5 °F 29.97 in SW 1.6 mph 3.5 mph 49 % 0.00 in
18:30 40.1 °F 22.9 °F 29.97 in WSW 2.0 mph 4.6 mph 50 % 0.00 in
18:35 39.8 °F 23.1 °F 29.97 in SW 2.5 mph 4.0 mph 51 % 0.00 in
18:40 39.6 °F 22.9 °F 29.98 in SSW 3.2 mph 9.2 mph 51 % 0.00 in
18:50 39.4 °F 23.7 °F 29.98 in WSW 4.2 mph 5.8 mph 53 % 0.00 in
18:55 39.4 °F 23.7 °F 29.98 in SSW 3.5 mph 6.9 mph 53 % 0.00 in
19:00 39.3 °F 24.0 °F 29.99 in SSW 2.2 mph 4.6 mph 54 % 0.00 in
19:05 39.3 °F 24.0 °F 29.99 in South 4.6 mph 6.9 mph 54 % 0.00 in
19:10 39.3 °F 24.5 °F 29.99 in SSW 4.0 mph 6.0 mph 55 % 0.00 in
19:15 39.3 °F 24.5 °F 29.99 in SSW 2.6 mph 6.9 mph 55 % 0.00 in
19:20 39.3 °F 24.5 °F 30.00 in SSW 2.6 mph 5.8 mph 55 % 0.00 in
19:25 39.3 °F 24.5 °F 30.00 in SW 2.0 mph 8.0 mph 55 % 0.00 in
19:35 39.3 °F 24.5 °F 29.99 in SW 3.9 mph 4.6 mph 55 % 0.00 in
19:40 39.3 °F 24.5 °F 29.99 in SW 1.6 mph 3.5 mph 55 % 0.00 in
19:45 39.3 °F 24.5 °F 29.99 in SW 0.7 mph 3.5 mph 55 % 0.00 in
19:50 39.2 °F 24.4 °F 30.00 in SW 1.6 mph 5.8 mph 55 % 0.00 in
19:56 39.1 °F 24.7 °F 30.00 in SSW 2.0 mph 7.0 mph 56 % 0.00 in
20:06 39.0 °F 24.6 °F 30.00 in South 2.7 mph 5.8 mph 56 % 0.00 in
20:11 39.0 °F 24.6 °F 30.00 in WSW 1.7 mph 6.9 mph 56 % 0.00 in
20:16 39.0 °F 24.6 °F 30.00 in South 2.5 mph 3.5 mph 56 % 0.00 in
20:21 39.0 °F 24.6 °F 30.00 in SSW 1.9 mph 3.5 mph 56 % 0.00 in
20:26 39.0 °F 24.6 °F 30.00 in SW 1.9 mph 4.6 mph 56 % 0.00 in
20:31 39.0 °F 24.6 °F 30.00 in SW 2.4 mph 4.6 mph 56 % 0.00 in
20:36 39.0 °F 24.6 °F 30.00 in SSW 3.4 mph 9.2 mph 56 % 0.00 in
20:39 39.0 °F 24.6 °F 30.00 in SW 3.5 mph 6.9 mph 56 % 0.00 in
20:44 39.0 °F 24.6 °F 30.00 in SW 2.2 mph 3.5 mph 56 % 0.00 in
20:49 39.0 °F 25.0 °F 30.01 in SSW 1.2 mph 3.5 mph 57 % 0.00 in
20:54 39.1 °F 25.1 °F 30.01 in SSW 4.0 mph 6.9 mph 57 % 0.00 in
20:59 39.1 °F 25.1 °F 30.00 in SW 1.8 mph 5.8 mph 57 % 0.00 in
21:04 39.3 °F 25.3 °F 30.00 in South 3.3 mph 5.8 mph 57 % 0.00 in
21:09 39.5 °F 25.5 °F 30.00 in South 2.0 mph 4.6 mph 57 % 0.00 in
21:14 39.6 °F 25.2 °F 30.00 in SSW 5.6 mph 10.4 mph 56 % 0.00 in
21:19 39.8 °F 25.4 °F 30.00 in SSW 4.7 mph 7.0 mph 56 % 0.00 in
21:24 40.0 °F 25.6 °F 30.00 in WSW 3.2 mph 5.8 mph 56 % 0.00 in
21:29 40.1 °F 25.2 °F 30.00 in SW 5.9 mph 8.1 mph 55 % 0.00 in
21:34 40.2 °F 25.7 °F 30.01 in South 4.0 mph 6.0 mph 56 % 0.00 in
21:39 40.2 °F 25.7 °F 30.01 in SSW 2.0 mph 4.6 mph 56 % 0.00 in
21:44 40.2 °F 25.7 °F 30.01 in SSW 3.0 mph 5.8 mph 56 % 0.00 in
21:50 40.3 °F 25.8 °F 30.01 in WSW 1.6 mph 6.0 mph 56 % 0.00 in
21:55 40.3 °F 25.8 °F 30.01 in SW 2.3 mph 2.3 mph 56 % 0.00 in
22:00 40.4 °F 25.9 °F 30.01 in SW 4.4 mph 8.1 mph 56 % 0.00 in
22:05 40.5 °F 26.0 °F 30.02 in SSW 2.2 mph 4.6 mph 56 % 0.00 in
22:10 40.6 °F 26.5 °F 30.02 in WSW 0.9 mph 4.6 mph 57 % 0.00 in
22:15 40.7 °F 26.6 °F 30.02 in WSW 4.1 mph 6.9 mph 57 % 0.00 in
22:20 40.9 °F 27.2 °F 30.01 in WNW 3.2 mph 7.0 mph 58 % 0.00 in
22:23 40.9 °F 27.7 °F 29.80 in SW 6.0 mph 12.0 mph 59 % 0.00 in
22:24 41.0 °F 27.8 °F 30.01 in West 7.9 mph 11.5 mph 59 % 0.00 in
22:29 41.2 °F 27.9 °F 30.01 in WNW 6.5 mph 11.5 mph 59 % 0.00 in
22:34 41.4 °F 28.1 °F 30.01 in West 8.4 mph 10.4 mph 59 % 0.00 in
22:39 41.6 °F 28.3 °F 30.01 in SW 2.2 mph 6.9 mph 59 % 0.00 in
22:44 41.7 °F 28.8 °F 30.01 in West 1.1 mph 4.6 mph 60 % 0.00 in
22:49 41.7 °F 28.4 °F 30.02 in WNW 6.5 mph 13.8 mph 59 % 0.00 in
22:54 41.7 °F 28.8 °F 30.02 in NW 5.5 mph 11.5 mph 60 % 0.00 in
22:59 41.8 °F 28.9 °F 30.02 in WNW 6.2 mph 18.4 mph 60 % 0.00 in
23:04 41.7 °F 29.2 °F 30.02 in West 9.0 mph 13.8 mph 61 % 0.00 in
23:09 41.6 °F 29.1 °F 30.02 in SW 2.9 mph 6.0 mph 61 % 0.00 in
23:19 41.5 °F 29.8 °F 30.03 in NW 5.2 mph 10.4 mph 63 % 0.00 in
23:24 41.5 °F 29.8 °F 30.03 in West 6.1 mph 12.0 mph 63 % 0.00 in
23:29 41.4 °F 29.7 °F 30.02 in WSW 4.5 mph 6.0 mph 63 % 0.00 in
23:34 41.3 °F 30.0 °F 30.02 in WSW 6.3 mph 14.0 mph 64 % 0.00 in
23:39 41.3 °F 30.0 °F 30.02 in West 3.2 mph 8.1 mph 64 % 0.00 in
23:44 41.2 °F 29.9 °F 30.02 in SSW 6.4 mph 9.2 mph 64 % 0.00 in
23:49 41.1 °F 29.8 °F 30.02 in WSW 2.9 mph 11.0 mph 64 % 0.00 in
23:54 41.0 °F 29.7 °F 30.02 in WSW 7.6 mph 11.5 mph 64 % 0.00 in
23:59 40.9 °F 29.7 °F 30.02 in West 4.4 mph 6.9 mph 64 % 0.00 in
Crab Meadow Weather
Compliments of Weather Underground - 3 mb

Script developed by  Jim McMurry - jmcmurry@mwt.net Adapted for the template by  Wim van der Kuil - Leuven-Template.eu

Recycling: The average American uses seven trees a year in paper, wood, and other products made from trees. This amounts to about 2,000,000,000 trees per year!